Regional Weather Roundup
Issued by NWS

Home | Current Version | Previous Version | Graphics & Text | Print | Product List | Glossary Off
Versions: 1 2 3 4 5 6 7 8 9 10 11 12 13 14 15 16 17 18 19 20 21 22 23 24 25 26 27 28 29 30 31 32 33 34 35 36 37 38 39 40 41 42 43 44 45 46 47 48 49 50

000
ASUS43 KTOP 050159
RWRKS

WEATHER ROUNDUP FOR KANSAS
NATIONAL WEATHER SERVICE GOODLAND KS
800 PM CST SUN DEC 04 2016

NOTE:  "FAIR" INDICATES FEW OR NO CLOUDS BELOW 12,000 FEET WITH NO
SIGNIFICANT WEATHER AND/OR OBSTRUCTIONS TO VISIBILITY.

KSZ001>006-013>018-027>032-041>047-050300-
NORTHWEST KANSAS

CITY           SKY/WX    TMP DP  RH WIND       PRES   REMARKS
GOODLAND       CLEAR     36  12  37 S16       29.84F WCI  26
HAYS           CLEAR     33  25  72 S8        29.95S
HILL CITY      CLEAR     35  19  52 SW8       29.91F
RUSSELL        CLEAR     36  27  69 S12       29.93S WCI  28
$$

KSZ061>065-074>080-084>089-050300-
SOUTHWEST KANSAS

CITY           SKY/WX    TMP DP  RH WIND       PRES   REMARKS
DODGE CITY     CLEAR     35  25  66 SW6       29.97S
ELKHART          N/A     34  17  50 S10         N/A  WCI  26
GARDEN CITY    CLEAR     32  23  69 S10       29.93F WCI  24
GREAT BEND     CLEAR     35  28  75 SW9       29.97S
LIBERAL        CLEAR     36  21  55 S8        29.97F
$$

KSZ066>073-081>083-090>101-050300-
SOUTHEAST KANSAS

CITY           SKY/WX    TMP DP  RH WIND       PRES   REMARKS
CHANUTE        CLEAR     33  31  92 CALM      30.02F
COFFEYVILLE    CLEAR     38  36  92 CALM      30.03F
HUTCHINSON     CLEAR     34  30  85 CALM      29.99S
MEDICINE LODGE   N/A     37  27  67 CALM      29.99F
NEWTON         CLEAR     37  32  82 S10       30.00R WCI  30
PARSONS        CLEAR     33  31  92 CALM      30.03S
WICHITA INTL   CLEAR     36  34  92 S8        30.00S
WICHITA JABRA  CLEAR     37  35  92 S7        30.00S
WINFIELD       CLEAR     36  34  92 S5        30.03S
$$

KSZ007>012-019>026-033>040-048>060-102>105-050300-
NORTHEAST KANSAS

CITY           SKY/WX    TMP DP  RH WIND       PRES   REMARKS
CONCORDIA      CLEAR     38  32  79 S12       29.94F WCI  30
EMPORIA        CLEAR     33  31  92 S8        29.99S
LAWRENCE       CLEAR     30  30 100 CALM      30.01S FOG
MANHATTAN      CLEAR     32  30  92 CALM      29.98S
OLATHE IND     CLEAR     33  32  96 SW5       30.01S
OLATHE EXE     CLEAR     34  33  96 SW3       30.00S
SALINA         CLEAR     36  31  82 S6        29.97S
TOPEKA BILLARD CLEAR     34  30  85 CALM      30.00S
TOPEKA FORBES  CLEAR     34  32  92 S5        29.99S
$$




USA.gov is the U.S. government's official web portal to all federal, state and local government web resources and services.